This is the latest recevied weather packets stored in our database for station/object KMASWX. If no packets are shown the sender has not sent any weather packets the latest 10 day(s).
| Time | Temp. | Humidity | Pressure | Rain* | Wind** | Luminosity | Snow |
|---|---|---|---|---|---|---|---|
| 1777676476 | 23.89° C | 21% | - | 0 mm | - | - | - |
| 1777676173 | 24.44° C | 21% | - | 0 mm | - | - | - |
| 1777675869 | 25° C | 19% | - | 0 mm | - | - | - |
| 1777675562 | 25° C | 19% | - | 0 mm | - | - | - |
| 1777675258 | 24.44° C | 21% | - | 0 mm | - | - | - |
| 1777674955 | 24.44° C | 20% | - | 0 mm | - | - | - |
| 1777674651 | 25° C | 21% | - | 0 mm | - | - | - |
| 1777674349 | 24.44° C | 21% | - | 0 mm | - | - | - |
| 1777674037 | 24.44° C | 22% | - | 0 mm | - | - | - |
| 1777673732 | 24.44° C | 20% | - | 0 mm | - | - | - |
| 1777673427 | 25° C | 23% | - | 0 mm | - | - | - |
| 1777673120 | 24.44° C | 21% | - | 0 mm | - | - | - |
| 1777672817 | 24.44° C | 22% | - | 0 mm | - | - | - |
| 1777672513 | 23.89° C | 22% | - | 0 mm | - | - | - |
| 1777672210 | 23.89° C | 24% | - | 0 mm | - | - | - |
| 1777671903 | 23.89° C | 22% | - | 0 mm | - | - | - |
| 1777671600 | 23.89° C | 22% | - | 0 mm | - | - | - |
| 1777671296 | 23.89° C | 23% | - | 0 mm | - | - | - |
| 1777670686 | 26.11° C | 21% | - | 0 mm | - | - | - |
| 1777670383 | 24.44° C | 21% | - | 0 mm | - | - | - |
| 1777670079 | 24.44° C | 20% | - | 0 mm | - | - | - |
| 1777669772 | 23.89° C | 21% | - | 0 mm | - | - | - |
| 1777669467 | 24.44° C | 21% | - | 0 mm | - | - | - |
| 1777669164 | 24.44° C | 21% | - | 0 mm | - | - | - |
| 1777668557 | 24.44° C | 24% | - | 0 mm | - | - | - |
* Rain latest 24 hours (hover to see other rain measurements)
** Current wind speed in m/s (hover to see current wind gust speed)